www.srh.weather.gov   
NOAA logo - Click to go to the NOAA homepage   NWS logo
Regional Weather Roundup
Enter Your "City, ST" or zip code   
Current Version              Previous Version:    01  02  03  04  05  06  07  08  09  10  11  12  13  14  15  16  17  18  19  20  21  22  23  24  25  26  27  28  29  30  
   31  32  33  34  35  36  37  38  39  40  41  42  43  44  45  46  47  48  49  50  51  52  53  54  55  56  57  58  59  60  
[Printable]
291
ASHW40 PHFO 011443
RWRHI

WEATHER ROUNDUP FOR HAWAII
NATIONAL WEATHER SERVICE HONOLULU HI
400 AM HST MON SEP 01 2014

THIS IS AN AUTOMATED REPORT THAT HAS NOT BEEN QUALITY CONTROLLED.

NOTE..."FAIR" INDICATES FEW OR NO CLOUDS BELOW 12,000 FEET WITH NO
SIGNIFICANT WEATHER AND/OR OBSTRUCTIONS TO VISIBILITY.

* - THESE SITES REPORT LIMITED FIELDS

HIZ001>004-011500-
KAUAI-NIIHAU-

CITY           SKY/WX    TMP DP  RH WIND       PRES   REMARKS
LIHUE APT      PTCLDY    73  70  90 W6        30.00F
PORT ALLEN*      N/A     70 N/A N/A NE5         N/A
POIPU*           N/A     72 N/A N/A N3          N/A
PRINCEVILLE*   NOT AVBL
KOKOLE POINT*  NOT AVBL
MOLOAA DAIRY*  NOT AVBL
WAIMEA HTS*      N/A    N/A N/A N/A N3G9        N/A
PUU OPAE*        N/A     64  61  88 CALM        N/A
PUU LUA*       NOT AVBL
MAKAHA RIDGE*  NOT AVBL
$$

HIZ005>011-011500-
OAHU-

CITY           SKY/WX    TMP DP  RH WIND       PRES   REMARKS
HONOLULU       PTCLDY    76  69  79 NW6       29.98F
KALAELOA       CLEAR     71  67  87 CALM      30.00S
KANEOHE MCB    PTCLDY    77  72  84 E3        29.99F
WHEELER FIELD  FAIR      68  65  92 N2        30.00F
BELLOWS*         N/A    N/A N/A N/A S2          N/A
KAHUKU*          N/A    N/A N/A N/A E1          N/A
WHEELER*       NOT AVBL
WAIANAE HARBOR NOT AVBL
DILLINGHAM*      N/A     66  66 100 CALM        N/A
KAHUKU TRN*      N/A     73  72  94 SE3G10      N/A
KAWAILOA*      NOT AVBL
KII*             N/A     75  73  94 SE5         N/A
MAKUA RANGE*     N/A     72  66  83 SE6         N/A
OAHU FOREST NW   N/A     68  68 100 VRB7G18     N/A
SCHOFIELD BRK*   N/A     66  64  94 MISG        N/A
SCHOFIELD S*   NOT AVBL
WAIANAE VLY*     N/A     70  64  83 N5G10       N/A
KUAOKALA*        N/A     73  68  83 CALM        N/A
HONOULIUULI*   NOT AVBL
MOKUOLOE IS*     N/A    N/A N/A N/A MISG        N/A
PALEHUA*         N/A     82  70  65 CALM        N/A
WAIAWA PHB*    NOT AVBL
$$

HIZ012>013-011500-
MOLOKAI-

CITY           SKY/WX    TMP DP  RH WIND       PRES   REMARKS
MOLOKAI AIRPT  CLEAR     69  69 100 CALM      30.00F
KALAUPAPA      NOT AVBL
MAKAPULAPAI*     N/A     72  64  78 S3          N/A
MOLOKAI 1*       N/A     64  63  94 NE2         N/A
PUU ALII*        N/A     59  58  97 SE1         N/A
$$

HIZ016-011500-
KAHOOLAWE-

CITY           SKY/WX    TMP DP  RH WIND       PRES   REMARKS
KAHOOLAWE*       N/A     72 N/A N/A E16G24      N/A
HAKIOAWA*      NOT AVBL
HONOKANAIA*      N/A     79  73  81 NE12G18     N/A
KANELOA*         N/A     75  73  94 E14G23    29.22F
KEALIALALO*    NOT AVBL
LUA MAKIKA*    NOT AVBL
$$

HIZ014>015-011500-
LANAI-

CITY           SKY/WX    TMP DP  RH WIND       PRES   REMARKS
LANAI CITY     FAIR      69  69 100 E7        30.05F
LANAI 1*         N/A     70  70 100 NE7         N/A
$$

HIZ017>028-011500-
MAUI-

CITY           SKY/WX    TMP DP  RH WIND       PRES   REMARKS
KAHULUI        CLEAR     72  67  84 SE9       29.99S
KAPALUA-W MAUI NOT AVBL
HANA AIRPORT   PTCLDY    77  72  83 E6        30.02S
HANA*            N/A     79 N/A N/A E6G13       N/A
HALEAKALA SUMM   N/A     45  45 100 SW9G23      N/A
MAALAEA BAY*   NOT AVBL
HALEAKALA*     NOT AVBL
KAUPO GAP*       N/A     61  61 100 CALM        N/A
KULA 1*          N/A     57  51  80 S3G12       N/A
$$

HIZ023>026-011500-
BIG ISLAND OF HAWAII COAST AND LOWER SLOPES-

CITY           SKY/WX    TMP DP  RH WIND       PRES   REMARKS
KAILUA KONA    CLOUDY    80  68  66 N8        29.96F
HILO           CLOUDY    74  70  87 SW3       29.99F
HONOKAA*       NOT AVBL
KAWAIHAE MWT*    N/A     79 N/A N/A NE5         N/A
KAWAIHAE*        N/A     79 N/A N/A NE3         N/A
SOUTH POINT*     N/A     72 N/A N/A NE12        N/A
UPOLU AIRPORT*   N/A    N/A N/A N/A SE8         N/A
KAMUELA*       PTSUNNY   59  54  82 CALM      30.11R
HAKALAU*         N/A     51  50  95 W3          N/A
KALOKO-HONOKO*   N/A     77  68  73 N3        29.95S
PALI 2*          N/A     68  61  77 NE3G10      N/A
KEALAKOMO*     NOT AVBL
KAUPULEHU*       N/A     73  63  68 E3          N/A
KAPAPALA*        N/A     68  64  88 NE1G10      N/A
LOWER KAHUKU*  NOT AVBL
PUHE CS*       NOT AVBL
PUHO CS*         N/A     75  64  69 E2          N/A
PTA KEAMUKU*     N/A     61  50  67 S3          N/A
WAIKOLOA*        N/A     72  63  73 SE3         N/A
$$

HIZ027>028-011500-
BIG ISLAND OF HAWAII INTERIOR AND SUMMMITS-

CITY           SKY/WX    TMP DP  RH WIND       PRES   REMARKS
BRADSHAW FIELD CLOUDY    55  52  90 SE7       30.36F
MK VISITOR CEN   N/A      0   0 100 MISG        N/A
MAUNA KEA*       N/A     45  -4  13 N1          N/A
MAUNA LOA*       N/A     39  34  81 MISG        N/A
MAUNA LOA 1*     N/A    N/A N/A N/A MISG        N/A
PTA KIPUKA*      N/A     54  50  87 E5          N/A
PTA RANGE 17*    N/A     59  54  82 E5G12       N/A
PTA WEST*        N/A     63  54  72 E10         N/A
NENE CABIN*    NOT AVBL
AHUMOA*          N/A     53  45  75 E7          N/A
PTA PORTABLE*  NOT AVBL
PUU MALI*      NOT AVBL
$$

HIC003-011500-
NORTHWEST ISLANDS-

CITY           SKY/WX    TMP DP  RH WIND       PRES   REMARKS
MIDWAY ISLAND  CLEAR     75  72  88 CALM      30.01S
MIDWAY NOS*    NOT AVBL
FRENCH FRIGATE NOT AVBL
$$

PHZ110>124-180-011500-
BUOY REPORTS

STATION/POSITION TIME  TEMP    WIND        PRES    WAVE   SWELL
                       AIR SEA DIR/SP/G            HT/PER HT/DIR
                 (UTC) (F)     (DEG/KT/KT) (MB)    (FT/S) (FT/D)
BUOY 51001       NOT AVBL
BUOY 51101       NOT AVBL
BUOY 51100       1400          110/ 14       N/A
BUOY 51003       1400   81 82   80/ 12/ 14 1014.7F   5/12   5
BUOY 51004       1348   79 81   70/ 14/ 16 1014.4F   6/15   5/160
BARBERS PT BUOY  NOT AVBL
WAIMEA BAY BUOY  1400      81                N/A     2/ 8   2/ 30
KAILUA BAY BUOY  1400      81                N/A     4/11   2/ 70
LANAI BUOY       NOT AVBL
BARBERS PT 2     1400      81                N/A     4/13   3/190
PAUWELA MAUI     1400      80                N/A     5/10   2/ 70
HILO             NOT AVBL
KANEOHE BAY BUOY 1400      81                N/A     3/12   2/ 60
HANALEI KAUAI    NOT AVBL
KAHULUI HARBOR   1400   77 83  130/  3/  5 1015.2R
HONOLULU HARBOR  1400   76      CALM  /  1 1015.7S
KILO NALU        NOT AVBL
HILO HARBOR      1400   75     210/  4/  6 1015.2S
MOKUOLOE         1400   79 84   20/  2/  4 1015.6F
NAWILIWILI       1400      83                N/A
WHOTS BUOY       NOT AVBL
BUOY 51028       NOT AVBL
$$

......................KEY........................................
  SKY/WX - SKY CONDITIONS/PRESENT WEATHER
  TMP    - TEMPERATURE IN FAHRENHEIT
  DWPT   - DEWPOINT IN FAHRENHEIT
  RH     - RELATIVE HUMIDITY IN PERCENT
  WIND   - DIRECTION AND SPEED /MPH FOR ISLANDS...KTS FOR BUOYS/
  PRES   - MEAN SEA LEVEL PRESSURE IN INCHES OF HG
  VSB    - VISIBILITY IN MILES
  HX     - HEAT INDEX
  WCI    - WIND CHILL INDEX
  VRB    - VARIABLE WIND DIRECTION
  N/A    - NOT AVAILABLE



National Weather Service
Disclaimer
Last Modified: August 31, 2005
Privacy Policy